STARLINK-1090, 44968

Orbit data source: Space-Track

STARLINK-1090, 44968 is a payload satellite owned by SpaceX/Seattle (US) in LEO that was launched on Tue, 07 Jan 2020 UTC via an FALCON 9 launch vehicle from the Air Force Eastern Test Range (AFETR). Payload-class satellites include a variety of spacecraft equipped with specific instruments for various scientific and technological missions. These include communications satellites like Starlink; space stations such as the ISS; scientific satellites like the Hubble; Earth observation satellites from companies like Planet Labs, Umbra, and HawkEye 360; GPS; miniature CubeSats for education and research; and military/defense satellites.

Loading next visibility...
Identifier
44968, 2020-001BG
Orbit
LEO
Country
Flag of USUS
Related business
Manufacturer
SpaceX/Seattle
Mission
Operational Commercial Communications
Bus & Motor
STARLINK, Unknown motor
Mass
260 kg wet, ~248 kg dry
Launch date (UTC)
2020-01-07 (6 years ago)
Launch vehicle
FALCON 9
Launch site
Air Force Eastern Test Range (AFETR)
Object type
Payload
Rocket body
Debris
Shape & HBR
Box + 1 Pan, 10.1 m
Radar Cross Section
13.562 m², Large (>1 m²)

Expand to show TLE details & history
Last TLE update: 2 days ago

TLE from 2 days ago
0 STARLINK-1090
1 44968U 20001BG  25312.54442911  .00003634  00000-0  26272-3 0  9995
2 44968  53.0548 130.4613 0002229 105.6309 254.4926 15.06406646322158
Epoch: 2025-11-08T13:03Z
TLE epoch observation values (Epoch: 2025-11-08T13:03:58.675Z)
Latitude
-0.00001°
Longitude
-113.5057°
Altitude
548.483 km
Speed
7.589 km/s
True Right ascension
08h 41m 50s
True Declination
0° 00' 00"
Sunlit
Object was in daylight at epoch
Visualization orbit readout
Latitude
Unknown
Longitude
Unknown
Altitude
Unknown
Speed
Unknown
Apparent Right ascension
Unknown
Apparent Declination
Unknown
Sunlit
N/A
Visualization observer readout
Local Sidereal Time
04:20:15
Azimuth
Unknown
Elevation
Unknown
Doppler factor
Unknown
Orbital elements
Apogee altitude
549.006 km
Perigee altitude
545.918 km
Semi-major axis
6,925.599 km
Eccentricity
0.00022
Inclination
53.0548°
RAAN
130.4613°
Arg. of periapsis
105.6309°
True anomaly
254.46799°
Mean anomaly
254.4926°
Eccentric anomaly
254.48029°
Mean motion
3.7658 °/min
Orbital period
95.6 mins
BSTAR
0.00026272
Loading maneuver chart data...
Computing Atmospheric mass density...

Documentation

Showing up to 5 results
|